Odessa, TX

10:24 PM CST on December 12, 2017 (GMT -0600)
Odessa-Schlemeyer

Weather History for KODO - January, 2013

Change the Weather History Date:

Thursday, January 24, 2013

  Actual Average (KMAF) Record (KMAF)
Temperature  
Mean Temperature 59 °F -  
Max Temperature 75 °F 57 °F 82 °F (1950)
Min Temperature 43 °F 31 °F 9 °F (1963)
Degree Days  
Heating Degree Days 6    
Growing Degree Days 9 (Base 50)    
Moisture  
Dew Point 37 °F    
Average Humidity 50    
Maximum Humidity 97    
Minimum Humidity 22    
Precipitation  
Precipitation 0.00 in - - ()
Sea Level Pressure  
Sea Level Pressure 30.09 in    
Wind  
Wind Speed 6 mph (SW)    
Max Wind Speed 15 mph    
Max Gust Speed -    
Visibility 10 miles    
Events      
Averages and records for this station are not official NWS values.
T = Trace of Precipitation, MM = Missing Value Source: NWS Daily Summary

Daily Weather History Graph

Daily Weather History Graph

Search for Another Location

Airport or City:

Trip Planner

Search our weather history database for the weather conditions in past years. The results will help you decide how hot, cold, wet, or windy it might be!

Date:

Astronomy

Jan. 24, 2013 Rise Set
Actual Time 7:47 AM CST 6:16 PM CST
Civil Twilight 7:21 AM CST 6:42 PM CST
Nautical Twilight 6:51 AM CST 7:12 PM CST
Astronomical Twilight 6:22 AM CST 7:41 PM CST
Moon 4:22 PM CST (1/24) 5:44 AM CST (1/24)
Length of Visible Light 11h 21m
Length of Day
10h 29m
Waxing Gibbous, 94% of the Moon is Illuminated
Jan 24
Waxing Gibbous
Jan 26
Full
Feb 3
Last Quarter
Feb 10
New
Feb 17
First Quarter

Hourly Weather History & Observations

Time (CST) Temp. Windchill Dew Point Humidity Pressure Visibility Wind Dir Wind Speed Gust Speed Precip Events Conditions
12:53 AM 53.1 °F - 46.0 °F 77% 30.13 in 10.0 mi SSW 6.9 mph - N/A   Clear
1:53 AM 51.1 °F - 46.0 °F 83% 30.14 in 10.0 mi SW 3.5 mph - N/A   Clear
2:53 AM 51.1 °F - 46.9 °F 86% 30.13 in 10.0 mi SSW 3.5 mph - N/A   Clear
3:53 AM 50.0 °F - 46.0 °F 86% 30.13 in 10.0 mi SSW 4.6 mph - N/A   Clear
4:53 AM 46.9 °F - 45.0 °F 93% 30.13 in 9.0 mi Calm Calm - N/A   Clear
5:53 AM 43.0 °F 41.3 °F 42.1 °F 97% 30.13 in 8.0 mi WSW 3.5 mph - N/A   Clear
6:53 AM 43.0 °F - 39.9 °F 89% 30.14 in 9.0 mi Calm Calm - N/A   Clear
7:53 AM 43.0 °F - 39.9 °F 89% 30.16 in 10.0 mi Calm Calm - N/A   Clear
8:53 AM 48.0 °F - 42.1 °F 80% 30.16 in 10.0 mi Calm Calm - N/A   Clear
9:53 AM 55.9 °F - 39.0 °F 53% 30.16 in 10.0 mi SW 4.6 mph - N/A   Clear
10:53 AM 69.1 °F - 35.1 °F 29% 30.15 in 10.0 mi SW 8.1 mph - N/A   Clear
11:53 AM 71.1 °F - 34.0 °F 26% 30.13 in 10.0 mi SW 12.7 mph - N/A   Clear
12:53 PM 73.9 °F - 34.0 °F 23% 30.09 in 10.0 mi SW 12.7 mph - N/A   Clear
1:53 PM 75.0 °F - 34.0 °F 22% 30.06 in 10.0 mi SSW 15.0 mph - N/A   Clear
2:53 PM 75.9 °F - 34.0 °F 22% 30.02 in 10.0 mi SSW 15.0 mph - N/A   Clear
3:53 PM 75.9 °F - 34.0 °F 22% 30.01 in 10.0 mi SW 11.5 mph - N/A   Clear
4:53 PM 75.9 °F - 34.0 °F 22% 30.01 in 10.0 mi SW 9.2 mph - N/A   Clear
5:53 PM 75.0 °F - 35.1 °F 23% 30.02 in 10.0 mi SW 5.8 mph - N/A   Clear
6:53 PM 69.1 °F - 32.0 °F 25% 30.04 in 10.0 mi SW 4.6 mph - N/A   Clear
7:53 PM 64.0 °F - 32.0 °F 30% 30.06 in 10.0 mi WSW 3.5 mph - N/A   Clear
8:53 PM 62.1 °F - 32.0 °F 32% 30.05 in 10.0 mi West 6.9 mph - N/A   Clear
9:53 PM 61.0 °F - 30.9 °F 32% 30.04 in 10.0 mi West 6.9 mph - N/A   Clear
10:53 PM 59.0 °F - 30.0 °F 33% 30.03 in 10.0 mi West 6.9 mph - N/A   Clear
11:53 PM 55.9 °F - 30.0 °F 37% 30.03 in 10.0 mi WSW 3.5 mph - N/A   Clear